FW2111 Weather Reports


Display with metric or nautical units.
time (UTC)temp
F
wind
direction
speed
MPH
gust
MPH
rain 1hr
in
rain 24hr
in
rain mn
in
humidity
%
barometer
mb
20260507192938 50 281 11.0 25.0 0.00 0.00 0.00 33 1010.4
20260507192439 49 316 12.0 25.0 0.00 0.00 0.00 33 1010.4
20260507191940 49 277 8.0 21.0 0.00 0.00 0.00 30 1010.4
20260507191440 51 189 7.0 17.0 0.00 0.00 0.00 28 1010.2
20260507190919 50 313 8.0 17.0 0.00 0.00 0.00 28 1010.0
20260507190408 50 271 8.0 25.0 0.00 0.00 0.00 27 1010.1
20260507185903 50 285 10.0 25.0 0.00 0.00 0.00 28 1010.0
20260507185338 50 198 11.0 25.0 0.00 0.00 0.00 27 1010.1
20260507185045 50 248 9.0 25.0 0.00 0.00 0.00 26 1010.0
20260507184312 51 240 8.0 20.0 0.00 0.00 0.00 26 1010.1
20260507183811 50 148 7.0 20.0 0.00 0.00 0.00 26 1010.1
20260507183308 50 214 6.0 16.0 0.00 0.00 0.00 27 1010.1
20260507182810 49 318 8.0 16.0 0.00 0.00 0.00 28 1010.4
20260507182242 49 271 8.0 15.0 0.00 0.00 0.00 29 1010.3
20260507181714 49 302 8.0 18.0 0.00 0.00 0.00 28 1010.4
20260507181214 49 252 7.0 14.0 0.00 0.00 0.00 27 1010.4
20260507180649 49 180 8.0 21.0 0.00 0.00 0.00 26 1010.3
20260507180623 49 203 8.0 21.0 0.00 0.00 0.00 27 1010.3
20260507175851 50 298 6.0 17.0 0.00 0.00 0.00 27 1010.2
20260507175118 49 250 7.0 15.0 0.00 0.00 0.00 27 1010.3
20260507174548 49 219 8.0 20.0 0.00 0.00 0.00 27 1010.6
20260507174021 49 252 9.0 20.0 0.00 0.00 0.00 27 1010.8
20260507173457 49 262 8.0 17.0 0.00 0.00 0.00 27 1010.8
20260507173202 50 273 8.0 19.0 0.00 0.00 0.00 26 1010.8
20260507172404 49 262 9.0 19.0 0.00 0.00 0.00 29 1010.9
20260507171840 49 190 7.0 16.0 0.00 0.00 0.00 27 1011.0
20260507171544 49 325 6.0 15.0 0.00 0.00 0.00 27 1011.0
20260507170808 49 194 8.0 19.0 0.00 0.00 0.00 28 1011.1
20260507170242 49 279 8.0 19.0 0.00 0.00 0.00 26 1011.1
20260507165716 49 257 7.0 17.0 0.00 0.00 0.00 26 1011.2
20260507165149 49 202 7.0 17.0 0.00 0.00 0.00 28 1011.2
20260507164646 49 201 6.0 17.0 0.00 0.00 0.00 28 1011.3
20260507164143 49 260 6.0 18.0 0.00 0.00 0.00 29 1011.4
20260507163639 48 313 8.0 18.0 0.00 0.00 0.00 28 1011.4
20260507163136 49 327 7.0 16.0 0.00 0.00 0.00 29 1011.4
20260507162611 48 254 6.0 13.0 0.00 0.00 0.00 29 1011.7
20260507162317 48 294 6.0 15.0 0.00 0.00 0.00 30 1011.7
20260507161751 48 259 9.0 20.0 0.00 0.00 0.00 29 1011.8
20260507161225 48 210 10.0 21.0 0.00 0.00 0.00 31 1011.9
20260507160427 47 282 8.0 21.0 0.00 0.00 0.00 30 1011.9
20260507155901 47 224 7.0 18.0 0.00 0.00 0.00 31 1012.0
20260507155331 46 222 9.0 17.0 0.00 0.00 0.00 32 1012.2
20260507154834 45 271 7.0 16.0 0.00 0.00 0.00 35 1012.1
20260507154829 45 21 8.0 16.0 0.00 0.00 0.00 33 1012.1
20260507154054 44 268 7.0 16.0 0.00 0.00 0.00 36 1012.2
20260507153259 44 335 9.0 18.0 0.00 0.00 0.00 37 1012.3
20260507153238 45 279 9.0 21.0 0.00 0.00 0.00 33 1012.4
20260507152730 44 260 10.0 18.0 0.00 0.00 0.00 36 1012.3
20260507151932 46 283 6.0 19.0 0.00 0.00 0.00 31 1012.3
20260507151158 46 217 7.0 19.0 0.00 0.00 0.00 33 1012.3
20260507150654 46 267 9.0 21.0 0.00 0.00 0.00 32 1012.2
20260507150151 46 292 9.0 21.0 0.00 0.00 0.00 31 1012.2
20260507145649 46 278 9.0 18.0 0.00 0.00 0.00 32 1012.3
20260507145145 46 247 8.0 18.0 0.00 0.00 0.00 32 1012.2
20260507144643 46 238 8.0 18.0 0.00 0.00 0.00 32 1012.3
20260507144115 46 340 7.0 18.0 0.00 0.00 0.00 33 1012.3
20260507143612 46 271 6.0 12.0 0.00 0.00 0.00 33 1012.4
20260507143317 46 83 9.0 21.0 0.00 0.00 0.00 35 1012.4
20260507142543 46 205 7.0 21.0 0.00 0.00 0.00 33 1012.5
20260507142248 47 333 4.0 11.0 0.00 0.00 0.00 32 1012.5
20260507141721 46 275 4.0 11.0 0.00 0.00 0.00 34 1012.4
20260507141217 45 306 4.0 12.0 0.00 0.00 0.00 34 1012.5
20260507140443 45 267 6.0 15.0 0.00 0.00 0.00 34 1012.6
20260507135915 45 313 6.0 15.0 0.00 0.00 0.00 35 1012.5
20260507135412 45 276 5.0 13.0 0.00 0.00 0.00 35 1012.5
20260507134906 44 293 6.0 13.0 0.00 0.00 0.00 36 1012.7
20260507134339 44 322 7.0 18.0 0.00 0.00 0.00 36 1012.6
20260507133837 44 194 7.0 18.0 0.00 0.00 0.00 37 1012.6
20260507133310 43 301 6.0 13.0 0.00 0.00 0.00 38 1012.6
20260507132807 43 299 6.0 15.0 0.00 0.00 0.00 37 1012.7
20260507132240 43 296 8.0 14.0 0.00 0.00 0.00 38 1012.6
20260507132008 42 273 7.0 16.0 0.00 0.00 0.00 39 1012.7
20260507131235 42 234 5.0 13.0 0.00 0.00 0.00 39 1012.7
20260507130709 42 280 7.0 16.0 0.00 0.00 0.00 41 1012.7
20260507130141 41 288 6.0 16.0 0.00 0.00 0.00 41 1012.6
20260507125636 41 278 7.0 15.0 0.00 0.00 0.00 43 1012.6
20260507125111 41 261 6.0 15.0 0.00 0.00 0.00 43 1012.6
20260507124816 40 217 6.0 13.0 0.00 0.00 0.00 44 1012.6
20260507124313 40 258 7.0 13.0 0.00 0.00 0.00 45 1012.7
20260507123538 39 282 7.0 13.0 0.00 0.00 0.00 45 1012.7
20260507123011 39 251 6.0 15.0 0.00 0.00 0.00 46 1012.8
20260507122442 39 296 7.0 15.0 0.00 0.00 0.00 47 1012.8
20260507121918 38 246 8.0 15.0 0.00 0.00 0.00 48 1012.8
20260507121350 38 325 7.0 15.0 0.00 0.00 0.00 48 1012.7
20260507120848 38 284 6.0 12.0 0.00 0.00 0.00 49 1012.7
20260507120323 38 273 6.0 12.0 0.00 0.00 0.00 49 1012.7
20260507115758 37 258 6.0 12.0 0.00 0.00 0.00 49 1012.6
20260507115527 37 277 6.0 12.0 0.00 0.00 0.00 50 1012.8
20260507114730 37 273 5.0 11.0 0.00 0.00 0.00 50 1012.7
20260507114228 37 299 5.0 11.0 0.00 0.00 0.00 51 1012.6
20260507113709 36 243 5.0 9.0 0.00 0.00 0.00 51 1012.6
20260507113441 36 309 5.0 10.0 0.00 0.00 0.00 51 1012.6
20260507112647 36 275 5.0 11.0 0.00 0.00 0.00 52 1012.7
20260507112419 36 293 6.0 11.0 0.00 0.00 0.00 52 1012.6
20260507111643 36 256 5.0 11.0 0.00 0.00 0.00 52 1012.6
20260507111128 36 297 4.0 9.0 0.00 0.00 0.00 52 1012.6
20260507110628 35 308 4.0 10.0 0.00 0.00 0.00 52 1012.6
20260507110104 35 286 4.0 10.0 0.00 0.00 0.00 52 1012.6
20260507105832 36 292 4.0 10.0 0.00 0.00 0.00 52 1012.6
20260507105043 36 282 4.0 11.0 0.00 0.00 0.00 52 1012.6
20260507104519 36 279 4.0 11.0 0.00 0.00 0.00 52 1012.5
20260507104014 36 307 4.0 8.0 0.00 0.00 0.00 52 1012.6
20260507103513 36 258 4.0 10.0 0.00 0.00 0.00 51 1012.5
20260507103013 36 283 4.0 10.0 0.00 0.00 0.00 51 1012.5
20260507102511 36 303 4.0 9.0 0.00 0.00 0.00 51 1012.5
20260507102011 36 278 4.0 12.0 0.00 0.00 0.00 51 1012.5
20260507101449 36 273 4.0 9.0 0.00 0.00 0.00 51 1012.5
20260507100926 36 297 3.0 9.0 0.00 0.00 0.00 51 1012.4
20260507100654 36 261 3.0 8.0 0.00 0.00 0.00 51 1012.4
20260507095858 36 296 4.0 9.0 0.00 0.00 0.00 51 1012.5
20260507095333 36 286 4.0 8.0 0.00 0.00 0.00 51 1012.5
20260507095044 36 288 3.0 8.0 0.00 0.00 0.00 51 1012.5
20260507094315 36 263 3.0 9.0 0.00 0.00 0.00 51 1012.5
20260507093810 37 263 3.0 9.0 0.00 0.00 0.00 51 1012.5
20260507093311 37 287 3.0 9.0 0.00 0.00 0.00 51 1012.5
20260507092809 37 240 3.0 8.0 0.00 0.00 0.00 51 1012.5
20260507092308 37 290 3.0 7.0 0.00 0.00 0.00 51 1012.5
20260507091754 37 311 4.0 10.0 0.00 0.00 0.00 50 1012.5
20260507091232 37 254 3.0 10.0 0.00 0.00 0.00 50 1012.6
20260507090704 37 327 3.0 9.0 0.00 0.00 0.00 50 1012.5
20260507090408 37 313 3.0 9.0 0.00 0.00 0.00 50 1012.7
20260507085632 37 234 4.0 10.0 0.00 0.00 0.00 50 1012.6
20260507085131 37 296 4.0 10.0 0.00 0.00 0.00 50 1012.6
20260507084605 37 276 3.0 8.0 0.00 0.00 0.00 50 1012.7
20260507084102 38 282 2.0 8.0 0.00 0.00 0.00 50 1012.7
20260507083559 38 19 2.0 4.0 0.00 0.00 0.00 49 1012.7
20260507083055 38 259 3.0 6.0 0.00 0.00 0.00 49 1012.7
20260507082556 38 290 3.0 6.0 0.00 0.00 0.00 49 1012.7
20260507082054 38 263 3.0 8.0 0.00 0.00 0.00 49 1012.7
20260507081550 38 238 3.0 8.0 0.00 0.00 0.00 48 1012.7
20260507081048 39 345 3.0 8.0 0.00 0.00 0.00 48 1012.8
20260507080815 39 298 3.0 7.0 0.00 0.00 0.00 48 1012.8
20260507080040 39 284 4.0 11.0 0.00 0.00 0.00 48 1012.8
20260507075537 39 348 4.0 11.0 0.00 0.00 0.00 48 1012.8
20260507075011 39 323 2.0 7.0 0.00 0.00 0.00 48 1012.8
20260507074444 39 263 2.0 7.0 0.00 0.00 0.00 48 1012.8
20260507073918 39 263 3.0 6.0 0.00 0.00 0.00 48 1012.9
20260507073908 39 318 2.0 7.0 0.00 0.00 0.00 48 1013.0
20260507072908 39 282 1.0 4.0 0.00 0.00 0.00 48 1012.9
20260507072341 39 290 1.0 3.0 0.00 0.00 0.00 47 1013.0
20260507071838 39 302 2.0 6.0 0.00 0.00 0.00 47 1013.1
20260507071813 39 252 2.0 6.0 0.00 0.00 0.00 48 1013.1
20260507070808 39 241 2.0 4.0 0.00 0.00 0.00 48 1013.1
20260507070241 39 263 2.0 6.0 0.00 0.00 0.00 48 1013.1
20260507065734 39 281 1.0 6.0 0.00 0.00 0.00 48 1013.2
20260507065208 39 259 1.0 6.0 0.00 0.00 0.00 48 1013.3
20260507064642 39 222 1.0 4.0 0.00 0.00 0.00 49 1013.3
20260507064139 39 245 1.0 4.0 0.00 0.00 0.00 49 1013.2
20260507063636 39 245 1.0 2.0 0.00 0.00 0.00 49 1013.3
20260507063613 39 245 0.0 2.0 0.00 0.00 0.00 49 1013.3
20260507062544 39 246 1.0 3.0 0.00 0.00 0.00 48 1013.5
20260507062040 39 246 1.0 3.0 0.00 0.00 0.00 48 1013.4
20260507061514 39 253 0.0 3.0 0.00 0.00 0.00 48 1013.5
20260507060947 39 254 0.0 1.0 0.00 0.00 0.00 49 1013.6
20260507060422 39 254 1.0 3.0 0.00 0.00 0.00 48 1013.6
20260507055900 39 254 1.0 3.0 0.00 0.00 0.00 48 1013.7
20260507055619 39 255 0.0 2.0 0.00 0.00 0.00 48 1013.7
20260507055051 39 255 1.0 2.0 0.00 0.00 0.00 49 1013.7
20260507054256 39 255 0.0 3.0 0.00 0.00 0.00 49 1013.8
20260507053730 38 255 1.0 3.0 0.00 0.00 0.00 49 1013.8
20260507053433 38 255 1.0 3.0 0.00 0.00 0.00 50 1013.8
20260507052636 38 255 2.0 3.0 0.00 0.00 0.00 50 1013.9
20260507052109 38 255 2.0 3.0 0.00 0.00 0.00 51 1013.9
20260507051605 38 256 2.0 4.0 0.00 0.00 0.00 50 1013.9
20260507051058 38 256 3.0 4.0 0.00 0.00 0.00 51 1013.9
20260507050556 38 254 2.0 4.0 0.00 0.00 0.00 51 1014.1
20260507050029 38 252 1.0 4.0 0.00 0.00 0.00 51 1014.0
20260507045504 38 252 0.0 0.0 0.00 0.00 0.00 51 1014.1
20260507044936 38 252 0.0 0.0 0.00 0.00 0.00 51 1014.1
20260507044435 38 252 0.0 0.0 0.00 0.00 0.00 50 1014.1
20260507043921 38 251 0.0 0.0 0.00 0.00 0.00 50 1014.1
20260507043426 38 251 0.0 0.0 0.00 0.00 0.00 50 1014.1
20260507043127 38 251 0.0 0.0 0.00 0.00 0.00 50 1014.2
20260507042354 38 251 0.0 0.0 0.00 0.00 0.00 51 1014.2
20260507041826 39 251 0.0 0.0 0.00 0.00 0.00 50 1014.2
20260507041323 39 251 0.0 0.0 0.00 0.00 0.00 50 1014.3
20260507040757 39 251 0.0 0.0 0.00 0.00 0.00 50 1014.3
20260507040254 39 251 0.0 1.0 0.00 0.00 0.00 49 1014.4
20260507035728 39 251 0.0 1.0 0.00 0.00 0.00 48 1014.4
20260507035202 40 251 0.0 1.0 0.00 0.00 0.00 48 1014.5
20260507034642 40 251 0.0 1.0 0.00 0.00 0.00 47 1014.5
20260507034336 40 251 0.0 1.0 0.00 0.00 0.00 47 1014.5
20260507033601 40 250 0.0 2.0 0.00 0.00 0.00 47 1014.5
20260507033059 40 250 0.0 2.0 0.00 0.00 0.00 47 1014.4
20260507032556 40 251 0.0 2.0 0.00 0.00 0.00 46 1014.5
20260507032039 40 250 0.0 2.0 0.00 0.00 0.00 47 1014.6
20260507031541 40 251 0.0 1.0 0.00 0.00 0.00 47 1014.7
20260507031037 40 251 0.0 0.0 0.00 0.00 0.00 46 1014.7
20260507030812 40 251 0.0 2.0 0.00 0.00 0.00 46 1014.6
20260507030012 40 251 0.0 2.0 0.00 0.00 0.00 45 1014.6
20260507025512 40 252 1.0 2.0 0.00 0.00 0.00 45 1014.7
20260507025007 40 252 1.0 3.0 0.00 0.00 0.00 45 1014.7
20260507024736 40 252 1.0 3.0 0.00 0.00 0.00 45 1014.6
20260507023956 40 252 1.0 2.0 0.00 0.00 0.00 45 1014.7
20260507023455 40 256 1.0 3.0 0.00 0.00 0.00 45 1014.6
20260507022928 40 257 1.0 3.0 0.00 0.00 0.00 45 1014.7
20260507022631 40 257 1.0 3.0 0.00 0.00 0.00 45 1014.6
20260507021858 41 263 2.0 7.0 0.00 0.00 0.00 44 1014.7
20260507021340 41 265 2.0 8.0 0.00 0.00 0.00 44 1014.6
20260507021048 41 305 1.0 4.0 0.00 0.00 0.00 43 1014.6
20260507020812 41 216 1.0 8.0 0.00 0.00 0.00 44 1014.6
20260507015744 41 261 1.0 6.0 0.00 0.00 0.00 43 1014.5
20260507015218 41 259 2.0 6.0 0.00 0.00 0.00 43 1014.5
20260507014716 41 276 2.0 4.0 0.00 0.00 0.00 43 1014.4
20260507014212 42 232 3.0 10.0 0.00 0.00 0.00 43 1014.4
20260507013714 42 246 3.0 10.0 0.00 0.00 0.00 43 1014.4
20260507013147 42 217 2.0 7.0 0.00 0.00 0.00 42 1014.5
20260507012914 42 319 3.0 7.0 0.00 0.00 0.00 42 1014.4
20260507012118 42 284 3.0 8.0 0.00 0.00 0.00 42 1014.5
20260507011843 42 283 3.0 8.0 0.00 0.00 0.00 42 1014.4
20260507011345 42 312 3.0 9.0 0.00 0.00 0.00 42 1014.5
20260507010547 42 242 4.0 9.0 0.00 0.00 0.00 42 1014.5
20260507010255 42 150 4.0 9.0 0.00 0.00 0.00 43 1014.5
20260507005458 42 261 4.0 8.0 0.00 0.00 0.00 42 1014.4
20260507005225 42 265 4.0 14.0 0.00 0.00 0.00 43 1014.4
20260507004429 42 300 4.0 14.0 0.00 0.00 0.00 43 1014.4
20260507003904 42 211 5.0 12.0 0.00 0.00 0.00 42 1014.4
20260507003343 42 247 5.0 12.0 0.00 0.00 0.00 42 1014.5
20260507002836 42 268 4.0 12.0 0.00 0.00 0.00 43 1014.5
20260507002335 42 262 4.0 10.0 0.00 0.00 0.00 43 1014.5
20260507001834 42 338 4.0 10.0 0.00 0.00 0.00 44 1014.6
20260507001332 42 244 5.0 10.0 0.00 0.00 0.00 44 1014.5
20260507000832 42 310 4.0 10.0 0.00 0.00 0.00 44 1014.5
20260507000336 42 263 4.0 10.0 0.00 0.00 0.00 44 1014.6
20260507000048 42 315 5.0 11.0 0.00 0.00 0.00 43 1014.6
20260506235319 42 288 5.0 10.0 0.00 0.00 0.00 44 1014.6
20260506234806 42 233 6.0 14.0 0.00 0.00 0.00 42 1014.6
20260506234305 43 284 7.0 14.0 0.00 0.00 0.00 41 1014.6
20260506234038 43 261 7.0 18.0 0.00 0.00 0.00 41 1014.6
20260506233249 43 246 6.0 18.0 0.00 0.00 0.00 41 1014.6
20260506232745 43 286 5.0 13.0 0.00 0.00 0.00 40 1014.7
20260506232229 43 254 7.0 13.0 0.00 0.00 0.00 40 1014.7
20260506231728 43 280 6.0 13.0 0.00 0.00 0.00 39 1014.6
20260506231205 43 243 6.0 15.0 0.00 0.00 0.00 39 1014.5
20260506230644 43 216 7.0 15.0 0.00 0.00 0.00 39 1014.5
20260506230119 43 12 7.0 16.0 0.00 0.00 0.00 39 1014.6
20260506225554 43 228 8.0 16.0 0.00 0.00 0.00 38 1014.6
20260506225050 43 263 6.0 14.0 0.00 0.00 0.00 38 1014.6
20260506224551 43 249 5.0 14.0 0.00 0.00 0.00 39 1014.6
20260506224530 43 288 7.0 14.0 0.00 0.00 0.00 38 1014.6
20260506223528 43 284 8.0 16.0 0.00 0.00 0.00 38 1014.6
20260506223002 43 247 7.0 16.0 0.00 0.00 0.00 38 1014.6
20260506222502 44 232 6.0 16.0 0.00 0.00 0.00 37 1014.5
20260506222232 44 218 6.0 15.0 0.00 0.00 0.00 37 1014.5
20260506221433 44 261 5.0 15.0 0.00 0.00 0.00 37 1014.5
20260506220906 44 272 5.0 13.0 0.00 0.00 0.00 37 1014.5
20260506220338 44 219 6.0 16.0 0.00 0.00 0.00 37 1014.5
20260506215835 43 238 7.0 16.0 0.00 0.00 0.00 37 1014.4
20260506215330 44 326 6.0 15.0 0.00 0.00 0.00 37 1014.5
20260506214830 44 228 5.0 15.0 0.00 0.00 0.00 37 1014.5
20260506214301 44 260 6.0 15.0 0.00 0.00 0.00 36 1014.4
20260506214029 44 257 9.0 17.0 0.00 0.00 0.00 36 1014.5
20260506213257 44 296 8.0 17.0 0.00 0.00 0.00 36 1014.5
20260506212730 44 276 6.0 14.0 0.00 0.00 0.00 35 1014.6
20260506212203 44 265 7.0 14.0 0.00 0.00 0.00 36 1014.4
20260506211701 44 294 5.0 14.0 0.00 0.00 0.00 37 1014.6
20260506211134 44 193 6.0 13.0 0.00 0.00 0.00 37 1014.5
20260506210629 44 267 6.0 15.0 0.00 0.00 0.00 37 1014.5
20260506210127 44 246 6.0 15.0 0.00 0.00 0.00 36 1014.3
20260506205601 44 277 8.0 16.0 0.00 0.00 0.00 36 1014.5
20260506205306 44 272 6.0 15.0 0.00 0.00 0.00 36 1014.6
20260506204531 44 235 6.0 15.0 0.00 0.00 0.00 36 1014.5
20260506204004 44 138 5.0 11.0 0.00 0.00 0.00 36 1014.6
20260506203732 44 226 6.0 15.0 0.00 0.00 0.00 38 1014.6
20260506202934 44 218 7.0 16.0 0.00 0.00 0.00 38 1014.7
20260506202431 44 355 5.0 16.0 0.00 0.00 0.00 38 1014.7
20260506201927 44 279 4.0 12.0 0.00 0.00 0.00 39 1014.6
20260506201655 43 281 6.0 12.0 0.00 0.00 0.00 39 1014.7
20260506201130 43 288 7.0 15.0 0.00 0.00 0.00 39 1014.7
20260506200354 43 259 7.0 15.0 0.00 0.00 0.00 39 1014.8
20260506195854 43 281 9.0 18.0 0.00 0.00 0.00 40 1014.7
20260506195325 43 306 8.0 18.0 0.00 0.00 0.00 40 1014.8
20260506194824 43 279 8.0 20.0 0.00 0.00 0.00 40 1015.0
20260506194255 43 319 8.0 20.0 0.00 0.00 0.00 40 1015.0
20260506193754 43 251 6.0 16.0 0.00 0.00 0.00 41 1014.9